Theta_e
328 328 327 328 331 328 330 342 340 345 344 343 343 343 344 341 340 341 341 340 339 338 338 339 341 342 344 346 347 346 345 344 345
328 329 330 331 332 332 330 333 337 346 346 345 345 345 344 344 342 341 341 339 340 340 339 340 342 343 344 346 347 347 346 344 343
330 334 335 336 337 339 338 335 340 347 347 347 348 347 345 345 343 342 343 341 339 340 340 341 342 342 343 345 346 347 346 344 344
328 331 332 334 336 338 340 344 342 347 348 346 347 348 346 344 345 345 343 342 341 341 341 341 342 342 343 343 343 345 345 343 343
329 331 331 332 334 335 336 337 342 342 343 345 348 347 348 347 346 343 345 344 344 343 342 343 342 342 343 343 342 342 344 345 346
324 325 325 327 327 328 331 333 336 340 339 339 340 341 342 343 345 345 342 344 344 343 345 345 343 341 341 340 340 338 339 344 345
320 319 319 319 320 320 321 324 329 335 336 337 338 341 340 340 342 343 342 344 346 345 345 345 344 342 341 341 340 339 337 337 339
319 317 316 317 316 317 318 319 323 325 325 328 332 329 330 334 341 343 343 343 344 345 345 345 346 344 342 341 340 339 335 335 338
317 317 318 317 316 315 317 320 321 323 322 322 323 322 324 329 331 333 339 342 343 341 343 344 344 343 343 341 342 338 336 336 336
317 316 315 313 315 317 317 318 321 319 319 321 321 320 323 325 325 328 330 336 339 340 340 342 343 343 344 343 343 335 334 337 339
313 313 314 315 315 316 316 319 320 320 321 321 321 321 322 323 324 325 326 332 335 336 338 340 342 343 343 343 345 335 332 336 340
312 312 313 315 317 318 318 319 321 321 321 321 322 322 323 323 324 324 325 328 330 332 334 335 336 339 341 342 344 332 330 333 342
316 316 318 319 319 320 319 320 320 320 320 320 320 322 323 325 325 325 325 326 326 329 332 333 334 335 337 336 341 333 326 329 341
316 316 318 318 318 318 318 319 319 318 319 319 322 324 325 325 327 327 326 325 325 327 329 332 332 332 331 332 334 336 324 321 337
315 315 317 319 317 317 319 319 318 318 318 322 323 323 324 324 326 327 327 324 326 327 328 328 328 327 328 329 330 323 320 319 326
314 315 316 318 317 317 318 319 318 317 320 322 322 323 323 324 326 326 327 324 324 324 324 324 325 324 324 325 325 330 318 320 320
313 314 315 316 315 316 316 318 319 319 321 322 322 322 322 324 324 324 325 325 325 324 324 324 325 324 322 323 321 324 329 323 326
312 313 314 315 315 314 316 317 318 320 321 319 319 321 321 323 323 325 324 325 324 324 325 325 325 327 325 323 320 322 320 322 328
312 312 313 314 314 315 315 316 319 320 318 318 317 315 318 319 319 320 323 324 324 315 313 311 309 309 317 327 318 311 308 306 306
313 312 312 313 314 313 315 315 313 315 316 316 315 315 316 318 317 320 322 323 323 322 321 308 305 303 302 302 311 305 301 300 303
Wind_Speed
6 5 5 6 6 5 6 6 7 9 9 9 9 9 8 6 8 6 6 6 5 4 4 4 5 6 6 6 6 6 4 3 3
6 2 2 3 4 6 7 7 9 9 9 9 8 9 5 7 7 8 7 7 5 4 5 4 6 6 6 6 5 6 5 4 5
6 8 10 8 7 6 4 6 8 7 6 10 9 8 7 7 7 8 7 5 7 6 6 6 6 7 7 7 7 6 6 5 5
6 8 7 7 7 7 7 7 3 5 6 6 5 6 7 7 8 8 6 6 6 6 6 6 7 7 7 7 6 7 7 7 6
6 6 5 7 6 6 7 7 9 7 4 3 3 4 5 9 9 6 8 7 6 6 8 7 9 8 9 9 8 8 7 8 7
6 7 6 6 6 5 5 5 6 6 5 5 4 5 3 5 5 5 6 5 5 7 9 9 8 9 10 10 10 9 8 8 8
6 5 7 5 4 4 3 3 5 5 5 4 3 4 5 4 4 5 5 5 8 8 10 11 10 9 10 11 9 9 9 9 8
7 6 6 5 4 3 2 2 3 2 1 1 2 3 4 4 4 4 4 6 9 10 9 10 11 9 9 9 9 8 10 10 12
7 6 6 5 4 3 3 3 4 3 4 5 2 4 5 4 4 4 5 5 5 7 10 9 6 10 11 11 9 13 15 12 10
6 5 3 4 5 4 0 3 3 5 6 5 5 5 5 5 5 5 5 6 5 5 7 7 8 9 11 12 12 15 17 18 10
5 4 3 4 5 6 6 5 5 5 6 7 6 7 7 6 5 6 5 5 6 5 4 6 6 8 11 12 12 14 16 19 14
5 4 3 1 2 3 4 6 6 7 7 6 6 7 7 7 7 7 6 6 7 7 5 5 6 6 7 10 12 17 19 15 13
6 6 3 5 6 3 5 7 6 6 7 7 7 7 8 7 7 7 8 7 7 6 6 7 5 6 6 9 10 12 15 16 11
4 4 5 4 5 4 6 6 6 7 7 7 9 10 10 10 9 9 7 7 5 6 7 8 7 7 7 8 8 8 11 13 10
7 7 7 6 5 6 7 7 5 7 7 9 8 9 10 11 10 8 8 7 8 7 6 8 8 8 8 5 6 6 6 11 13
4 4 5 5 5 7 7 7 6 7 9 8 10 11 11 11 12 11 10 6 7 6 6 7 8 7 7 7 5 7 9 16 17
5 5 5 4 6 6 8 7 7 7 9 9 10 12 13 11 11 11 10 6 6 7 7 7 7 7 7 8 6 7 8 9 9
3 5 4 4 6 6 9 10 9 8 7 9 11 13 14 12 10 10 10 9 8 7 9 9 8 9 8 7 7 10 12 11 10
3 5 5 6 6 6 10 10 10 10 11 10 11 11 10 10 10 11 10 9 9 12 17 14 16 18 13 9 16 13 15 16 15
4 5 5 6 7 6 8 11 10 13 12 12 12 11 12 10 10 10 9 9 9 11 9 14 15 16 17 16 20 11 11 15 17
Wind_Direction
149 183 180 201 242 251 255 235 215 193 195 204 196 190 209 207 210 209 205 197 195 209 196 210 214 208 223 232 220 224 213 225 233
35 60 275 215 218 220 214 220 227 219 204 204 198 196 187 219 217 216 209 202 195 200 206 198 218 222 217 224 225 222 209 221 235
39 64 68 50 36 25 310 211 198 192 196 214 203 187 197 214 220 222 216 194 204 202 211 203 197 212 222 222 212 212 207 223 234
93 82 74 69 49 37 39 44 22 180 180 197 206 200 195 213 223 217 212 206 209 208 210 213 209 206 217 222 217 212 204 211 221
123 99 88 76 61 49 47 41 48 46 17 346 274 229 242 229 219 225 213 205 209 213 214 202 208 209 213 222 219 225 217 221 217
141 125 109 96 80 66 67 69 68 71 60 50 27 18 280 274 264 272 235 237 230 213 221 225 208 208 213 218 219 210 215 220 219
131 135 125 117 96 77 31 49 76 78 58 39 27 24 19 360 304 255 251 241 250 242 220 225 221 213 222 219 212 208 208 214 226
146 165 149 136 145 179 197 134 97 93 58 337 319 336 339 320 310 303 297 248 239 247 241 235 230 217 221 222 220 213 205 212 223
164 170 145 148 130 134 115 143 161 201 248 258 257 287 285 297 309 315 308 297 269 253 255 246 229 228 223 221 225 222 212 204 212
160 145 125 60 61 82 274 308 299 296 307 306 284 267 264 264 277 289 293 298 292 267 263 252 245 242 241 236 231 222 213 213 217
111 100 53 29 19 360 355 350 343 316 313 301 293 292 289 286 273 266 270 267 272 271 251 252 252 249 250 251 247 234 226 214 214
65 53 38 46 38 19 6 9 346 341 327 320 316 295 292 287 283 278 262 250 251 256 258 253 247 239 241 242 252 244 230 219 222
55 54 43 37 14 17 4 333 331 329 309 313 306 303 296 285 281 271 267 259 251 243 234 249 247 253 244 249 262 263 235 213 225
55 60 21 4 7 342 311 313 321 306 302 295 290 294 293 288 278 268 255 255 246 247 251 254 248 249 248 253 254 258 247 205 215
28 7 354 355 332 308 306 311 313 296 289 284 286 286 285 285 282 275 274 241 260 257 242 249 253 252 259 235 238 215 195 168 152
352 339 322 303 304 304 296 287 280 284 284 289 292 294 292 289 284 278 274 252 248 254 245 237 250 245 250 254 223 204 195 168 176
353 331 319 305 302 295 298 298 288 265 284 293 296 289 288 285 287 283 279 266 246 246 246 245 244 245 243 245 234 215 211 214 241
290 290 288 286 291 293 306 310 303 297 301 319 310 307 300 295 295 286 279 267 254 240 244 232 238 239 235 237 237 231 207 197 205
274 302 308 316 307 307 319 315 323 326 323 321 313 309 306 302 295 288 283 279 275 240 245 246 240 247 240 244 239 243 211 211 221
327 340 338 335 325 320 324 331 325 333 325 318 309 300 295 289 286 288 288 283 278 282 269 246 249 249 247 235 246 256 230 209 212